Location: ?????????
(38.5999°N, 22.7695°E)
Time: 17:06:23
(UTC+00:00)

COBE Rocket - Pass Details

Date: 23 May 2024
Orbit: 678 x 776 km, 97.1° (Epoch: 23 June)

Event Time Altitude Azimuth Distance (km) Brightness Sun altitude
Rises 00:40:48 0° 4° (N) 3,139 8.1 -22.8°
Reaches altitude 10° 00:43:08 10° 358° (N) 2,230 7.1 -22.6°
Maximum altitude 00:47:47 45° 287° (WNW) 1,010 4.4 -22.0°
Enters shadow 00:48:30 42° 263° (W) 1,056 4.4 -22.0°
